Regional Weather Roundup
Issued by NWS

Home | Current Version | Previous Version | Graphics & Text | Print | Product List | Glossary On
Versions: 1 2 3 4 5 6 7 8 9 10 11 12 13 14 15 16 17 18 19 20 21 22 23 24 25 26 27 28 29 30 31 32 33 34 35 36 37 38 39 40 41 42 43 44 45 46 47 48 49 50
000
ASUS43 KMKX 251459
RWRWI

WISCONSIN REGIONAL WEATHER ROUNDUP
NATIONAL WEATHER SERVICE MILWAUKEE/SULLIVAN WI
1000 AM CDT FRI JUL 25 2014

NOTE: "FAIR" INDICATES FEW OR NO CLOUDS BELOW 12,000 FEET WITH NO
SIGNIFICANT WEATHER AND/OR OBSTRUCTIONS TO VISIBILITY.

WIZ001-002-006>008-014>016-023>028-251600-
NORTHWEST WISCONSIN

CITY           SKY/WX    TMP DP  RH WIND       PRES   REMARKS
SUPERIOR ARPT  CLOUDY    61  57  86 NE5       29.81F
ASHLAND        CLOUDY    70  62  76 S8        29.84R
HAYWARD        CLOUDY    65  60  84 SE7       29.86R
SIREN          CLOUDY    66  63  91 SW3       29.81S
RICE LAKE      DRIZZLE   65  60  85 S15       29.83F
LADYSMITH      CLOUDY    65  59  82 SE10G20   29.86F
EAU CLAIRE     NOT AVBL
MENOMONIE      CLOUDY    65  63  93 S9        29.87F
NEW RICHMOND   CLOUDY    67  65  91 S16       29.82F
OSCEOLA        PTSUNNY   69  67  93 S14G22    29.82F
$$

WIZ003>005-009-010-017-018-251600-
NORTH CENTRAL WISCONSIN

CITY           SKY/WX    TMP DP  RH WIND       PRES   REMARKS
WOODRUFF       CLOUDY    64  60  85 S13G18    29.88F
RHINELANDER    CLOUDY    63  58  83 S9        29.89F
EAGLE RIVER    CLOUDY    63  60  89 S3        29.89F
LAND O LAKES   CLOUDY    66  59  77 S6        29.90F
PHILLIPS       CLOUDY    65  59  82 S14       29.88R
TOMAHAWK       CLOUDY    63  59  87 CALM      29.91S
MEDFORD        CLOUDY    62  58  87 CALM      29.92R
MERRILL        CLOUDY    64  60  88 S5        29.90F
$$

WIZ029-030-035-036-043>047-251600-
CENTRAL WISCONSIN

CITY           SKY/WX    TMP DP  RH WIND       PRES   REMARKS
WAUSAU         CLOUDY    64  59  83 S8        29.90F
MOSINEE        PTSUNNY   64  61  88 S10       29.92F
MARSHFIELD     LGT RAIN  63  59  87 SW9       29.92R
STEVENS POINT  CLOUDY    65  56  73 S12       29.91F
WAUPACA        CLOUDY    69  58  69 S8        29.93F
WAUTOMA        NOT AVBL
WISC RAPIDS    CLOUDY    66  58  75 S10       29.94R
CAMP DOUGLAS   LGT RAIN  64  61  88 SW8       29.95R
$$

WIZ011>013-019>022-031-037>040-048>050-251600-
NORTHEAST WISCONSIN

CITY           SKY/WX    TMP DP  RH WIND       PRES   REMARKS
ANTIGO         CLOUDY    62  59  88 S10       29.92F
STURGEON BAY   PTSUNNY   72  55  56 SW14      29.94F
GREEN BAY      CLOUDY    68  57  68 S10       29.93F
MANITOWOC      NOT AVBL
APPLETON       NOT AVBL
CLINTONVILLE   CLOUDY    64  57  77 S8        29.92F
OSHKOSH        PTSUNNY   68  57  68 S14       29.92F
$$

WIZ032>034-041-042-053>061-251600-
SOUTHWEST WISCONSIN

CITY           SKY/WX    TMP DP  RH WIND       PRES   REMARKS
LA CROSSE      CLOUDY    67  60  78 S14G21    29.90R
SPARTA         RAIN      63  59  89 CALM      29.94R
VIROQUA        PTSUNNY   63  61  96 S13G22    29.93R
BOSCOBEL       CLOUDY    64  59  83 S9G17     29.93R
PRAIRIE DU CHI LGT RAIN  63  58  84 S13G22    29.94R
PLATTEVILLE    FAIR      63  60  90 S14       30.00S
$$

WIZ056-057-062-063-064-067-068-251600-
SOUTH CENTRAL WISCONSIN

CITY           SKY/WX    TMP DP  RH WIND       PRES   REMARKS
BARABOO/DELLS  LGT RAIN  63  55  75 S12       29.93S
LONE ROCK      NOT AVBL
WATERTOWN      CLOUDY    65  56  71 S7        29.98F
MADISON        CLOUDY    66  56  70 S10       29.95F
MIDDLETON      FAIR      66  56  69 S14       29.95F
MONROE         PTSUNNY   64  59  82 S17       29.99F
JANESVILLE     PTSUNNY   68  55  64 S14       29.98F
$$

WIZ051-052-058>065-066-070>072-251600-
SOUTHEAST WISCONSIN

CITY           SKY/WX    TMP DP  RH WIND       PRES   REMARKS
MILWAUKEE      CLOUDY    69  53  56 SW14      30.00F
WAUKESHA       MOSUNNY   64  54  68 S5        30.01F
MILWAUKEE/TIMM NOT AVBL
RACINE         CLOUDY    69  54  58 SW13      30.02F
BURLINGTON     CLOUDY    63  55  76 S6        30.01S
KENOSHA        CLOUDY    67  56  67 SW9       30.02S
FOND DU LAC    PTSUNNY   67  55  65 S13       29.94F
SHEBOYGAN      CLOUDY    67  55  65 SW13      29.97F
WEST BEND      PTSUNNY   68  52  56 SW9       29.99F
JUNEAU         PTSUNNY   66  52  61 S10       29.97F
$$

LSZ147-162-251600-
LAKE SUPERIOR

STATION/POSITION TIME  TEMP    WIND        PRES    WAVE
                       AIR SEA DIR/SP/G            HT/PER
                 (UTC) (F)     (DEG/KT/KT) (MB)    (FT/S)
$$

LMZ867-665-643>646-251600-
LAKE MICHIGAN

STATION/POSITION TIME  TEMP    WIND        PRES    WAVE
                       AIR SEA DIR/SP/G            HT/PER
                 (UTC) (F)     (DEG/KT/KT) (MB)    (FT/S)
$$

TC  - TEMPERATURE IN CELSIUS
VSB - VISIBILITY IN STATUTE MILES
WCI - WIND CHILL INDEX
HX  - HEAT INDEX




USA.gov is the U.S. government's official web portal to all federal, state and local government web resources and services.